Regional Weather Roundup
Issued by NWS Albany, NY

Home | Current Version | Previous Version | Text Only | Print | Product List | Glossary On
Versions: 1 2 3 4 5 6 7 8 9 10 11 12 13 14 15 16 17 18 19 20 21 22 23 24 25 26 27 28 29 30 31 32 33 34 35 36 37 38 39 40 41 42 43 44 45 46 47 48 49 50
000
ASUS41 KALY 291410
RWRALY

NEW YORK STATE HOURLY WEATHER ROUNDUP
NATIONAL WEATHER SERVICE ALBANY NY
1000 AM EDT SAT AUG 29 2015

NOTE: "FAIR" INDICATES FEW OR NO CLOUDS BELOW 12,000 FEET WITH NO
SIGNIFICANT WEATHER AND/OR NO OBSTRUCTIONS TO VISIBILITY.

NYZ032-033-038>043-046>054-057>066-NYZ062>081-291500-
EAST


CITY           SKY/WX    TMP DP  RH WIND       PRES   REMARKS
ALBANY         PTSUNNY   67  57  70 VRB3      30.21S
GLENS FALLS    SUNNY     65  57  75 S3        30.20F
POUGHKEEPSIE   SUNNY     70  56  61 CALM      30.21F
NEWBURGH       SUNNY     68  59  73 CALM      30.24S
MONTGOMERY     SUNNY     69  57  65 SW3       30.22F
WHITE PLAINS   SUNNY     75  54  47 SW5       30.22S
ISLIP          MOSUNNY   78  57  48 W6        30.20S
NEW YORK CITY  MOSUNNY   78  55  44 CALM      30.20F
CENTRAL PARK   SUNNY     76  54  46 W5        30.24S
$$

NYZ005>009-017-018-044>046-055-056-291500-
CENTRAL


CITY           SKY/WX    TMP DP  RH WIND       PRES   REMARKS
FULTON         SUNNY     68  59  73 VRB6      30.17S
SYRACUSE       PTSUNNY   69  59  70 CALM      30.16F
ROME           MOSUNNY   66  57  72 SE6       30.20S
ELMIRA         MOSUNNY   56  56 100 CALM      30.20F
BINGHAMTON     MOSUNNY   65  56  72 S3        30.22S
MONTICELLO     SUNNY     64  55  72 CALM      30.25S
$$

NYZ026>034-041>043-291500-
NORTH


CITY           SKY/WX    TMP DP  RH WIND       PRES   REMARKS
WATERTOWN      PTSUNNY   70  56  61 SW8       30.15F
FORT DRUM      NOT AVBL
MASSENA        MOSUNNY   67  57  70 SW6       30.16F
SARANAC LAKE   PTSUNNY   64  55  72 SW7       30.19F
PLATTSBURGH    CLOUDY    65  59  81 SE8       30.17F
$$

NYZ001>004-010>016-019>021-291500-
WEST


CITY           SKY/WX    TMP DP  RH WIND       PRES   REMARKS
NIAGARA FALLS  PTSUNNY   68  61  78 SE3       30.16S
BUFFALO        PTSUNNY   67  59  75 SW3       30.17S
DUNKIRK        MOSUNNY   69  58  67 SW6       30.18R
JAMESTOWN      MOSUNNY   64  55  72 S3        30.21S
WELLSVILLE     SUNNY     68  58  70 VRB3      30.24S
ROCHESTER      MOSUNNY   68  58  70 SW6       30.17F
PENN YAN       SUNNY     69  58  67 S8        30.19S
$$

             KEY
       WCI = WIND CHILL INDEX
       VSB = VISIBILITY
       HX  = HEAT INDEX
$$


USA.gov is the U.S. government's official web portal to all federal, state and local government web resources and services.